Probability
0 0 16 16 23 23 19 23 23 26 26 13 13 13 13 16 10 10 10 16 23 26 19 19 16 19 19 16 13 6 10 6 10 10 10 19 10 6 3 3 0 0 3
0 0 16 26 23 23 19 19 19 23 23 19 19 16 16 16 13 10 13 13 16 19 13 10 10 10 10 10 3 6 6 10 6 3 3 3 3 6 3 6 3 0 3
0 0 13 23 29 32 19 19 19 23 23 23 19 16 13 16 16 16 13 16 16 19 13 13 10 10 6 6 6 6 6 3 3 0 0 0 0 6 3 3 6 3 3
0 3 13 23 29 32 26 19 23 19 19 23 13 16 10 10 13 10 13 16 16 13 16 16 10 10 6 6 6 6 3 3 0 0 0 0 0 6 3 3 3 3 3
0 6 13 16 26 23 23 23 23 23 23 23 23 13 13 13 13 13 16 16 16 16 13 10 6 6 6 6 6 6 3 0 0 0 0 0 0 6 6 3 3 3 3
0 6 13 19 23 19 19 19 16 16 16 19 23 16 13 10 13 10 10 13 13 10 10 10 6 6 6 6 6 3 0 0 0 0 0 0 0 3 3 0 3 3 3
0 6 13 16 19 19 16 19 16 16 16 19 16 13 13 10 10 10 10 10 13 6 3 3 3 3 6 6 6 0 0 0 0 0 0 0 0 3 3 0 0 3 0
0 3 10 16 16 16 13 13 16 16 16 16 16 16 13 10 10 10 10 10 10 6 3 0 0 3 3 6 6 0 0 0 0 0 0 0 0 3 3 0 0 0 0
3 3 3 13 13 13 13 13 13 16 16 16 16 16 13 10 10 6 6 10 6 3 3 0 3 3 6 6 3 0 0 0 0 0 0 0 0 3 0 0 0 3 3
3 3 3 10 10 13 13 13 13 13 13 13 10 10 10 6 10 10 6 3 3 3 0 0 3 6 3 0 0 0 0 0 0 0 0 0 0 0 0 0 0 0 3
3 3 3 3 6 10 6 10 10 6 6 10 6 6 3 3 3 0 0 0 0 0 0 3 3 0 0 0 0 0 0 0 0 0 0 0 3 0 0 0 0 0 0
3 3 3 3 3 3 3 3 3 3 3 3 3 3 3 3 0 0 0 0 0 0 0 0 0 0 0 0 0 0 0 0 0 0 0 0 0 0 0 0 0 0 0
3 3 3 3 3 3 3 0 0 0 3 3 0 0 0 0 0 0 0 0 0 0 0 0 0 0 0 0 0 0 0 0 0 0 0 0 0 0 0 0 0 0 0
3 3 3 0 3 3 3 0 0 0 0 0 0 0 0 0 0 0 0 0 0 0 0 0 0 0 0 0 0 0 0 0 0 0 0 0 0 0 0 0 0 0 0
3 3 3 0 0 0 0 0 0 0 0 0 0 0 0 0 0 0 0 0 0 0 0 0 0 0 0 0 0 0 0 0 0 0 0 0 0 0 0 0 0 0 0
0 0 0 3 0 0 0 0 0 0 0 0 0 0 0 0 0 0 0 0 0 0 0 0 0 0 0 0 0 0 0 0 0 0 0 0 0 0 0 0 0 0 0
0 0 0 0 0 0 0 0 0 0 0 0 0 0 0 0 0 0 0 0 0 0 0 0 0 0 0 0 0 0 0 0 0 0 0 0 0 0 0 0 0 0 0
0 0 0 0 0 0 0 0 0 0 0 0 0 0 0 0 0 0 0 0 0 0 0 0 0 0 0 0 0 0 0 0 0 0 0 0 0 0 0 0 0 0 0
0 0 0 0 0 0 0 0 0 0 0 0 0 0 0 0 0 0 0 0 0 0 0 0 0 0 0 0 0 0 0 0 0 0 0 0 0 0 0 0 0 0 0
0 0 0 0 0 0 0 0 0 0 0 0 0 0 0 0 0 0 0 0 0 0 0 0 0 0 0 0 0 0 0 0 0 0 0 0 0 0 0 0 0 0 0
0 0 0 0 0 0 0 0 0 0 0 0 0 0 0 0 0 0 0 0 0 0 0 0 0 0 0 0 0 0 0 0 0 0 0 0 0 0 0 0 0 0 0
0 0 0 0 0 0 0 0 0 0 0 0 0 0 0 0 0 0 0 0 0 0 0 0 0 0 0 0 0 0 0 0 0 0 0 0 0 0 0 0 0 0 0
0 0 0 0 0 0 0 0 0 0 0 0 0 0 0 0 0 0 0 0 0 0 0 0 0 0 0 0 0 0 0 0 0 0 0 0 0 0 0 0 0 0 0
0 0 0 0 0 0 0 0 0 0 0 0 0 0 0 0 0 0 0 0 0 0 0 0 0 0 0 0 0 0 0 0 0 0 0 0 0 0 0 0 0 0 0
0 0 0 0 0 0 0 0 0 0 0 0 0 0 0 0 0 0 0 0 0 0 0 0 0 0 0 0 0 0 0 0 0 0 0 0 0 0 0 0 0 0 0
0 0 0 0 0 0 0 0 0 0 0 0 0 0 0 0 0 0 0 0 0 0 0 0 0 0 0 0 0 0 0 0 0 0 0 0 0 0 0 0 0 0 0
Height
5823 5824 5825 5826 5827 5828 5829 5830 5832 5833 5834 5835 5836 5837 5838 5839 5840 5841 5842 5844 5844 5845 5847 5848 5848 5849 5849 5850 5851 5851 5852 5852 5853 5853 5853 5854 5854 5854 5855 5855 5855 5855 5856
5820 5821 5822 5823 5825 5826 5827 5828 5829 5831 5832 5833 5834 5835 5836 5837 5838 5839 5841 5842 5843 5844 5845 5846 5847 5847 5848 5849 5850 5850 5851 5851 5852 5852 5853 5853 5853 5853 5854 5854 5854 5855 5855
5818 5819 5820 5821 5822 5823 5824 5826 5827 5828 5829 5831 5832 5833 5834 5835 5836 5837 5839 5840 5841 5842 5843 5844 5845 5846 5847 5848 5848 5849 5850 5850 5851 5851 5851 5852 5852 5852 5853 5853 5853 5854 5854
5815 5816 5817 5818 5819 5820 5822 5823 5824 5825 5827 5828 5829 5830 5831 5833 5834 5835 5836 5838 5839 5840 5841 5842 5843 5844 5845 5846 5847 5847 5848 5849 5849 5850 5850 5851 5851 5851 5852 5852 5852 5852 5853
5811 5812 5813 5814 5816 5817 5818 5820 5821 5823 5824 5825 5826 5827 5829 5830 5831 5832 5834 5835 5836 5837 5838 5840 5840 5841 5842 5843 5844 5845 5846 5847 5848 5848 5849 5849 5850 5850 5850 5850 5851 5851 5851
5808 5809 5810 5811 5812 5814 5815 5816 5818 5819 5820 5822 5823 5824 5825 5827 5828 5829 5831 5832 5833 5835 5836 5837 5838 5839 5840 5841 5842 5843 5844 5845 5845 5846 5847 5847 5848 5848 5848 5849 5849 5849 5850
5804 5805 5806 5807 5809 5810 5811 5813 5814 5815 5817 5818 5819 5821 5822 5823 5825 5826 5827 5829 5830 5831 5833 5834 5835 5836 5837 5838 5839 5840 5841 5842 5843 5843 5844 5845 5845 5846 5846 5847 5847 5847 5847
5799 5800 5802 5803 5805 5806 5807 5809 5810 5811 5813 5814 5815 5817 5818 5820 5821 5822 5824 5825 5827 5828 5829 5830 5831 5832 5834 5835 5836 5837 5838 5839 5840 5840 5841 5842 5843 5843 5844 5844 5844 5845 5845
5794 5795 5797 5798 5800 5801 5803 5804 5805 5807 5808 5809 5811 5813 5814 5816 5817 5818 5820 5821 5822 5824 5825 5826 5828 5829 5830 5831 5832 5834 5835 5836 5836 5837 5838 5839 5839 5840 5841 5841 5842 5842 5842
5788 5790 5791 5793 5795 5796 5798 5799 5800 5802 5803 5805 5806 5808 5809 5811 5812 5814 5815 5817 5818 5820 5821 5822 5823 5825 5826 5827 5828 5829 5831 5832 5833 5834 5835 5835 5836 5837 5837 5838 5838 5839 5839
5782 5784 5785 5787 5789 5790 5792 5794 5795 5797 5798 5800 5801 5803 5804 5806 5807 5809 5810 5812 5813 5815 5816 5817 5818 5820 5821 5822 5824 5825 5826 5827 5828 5829 5830 5831 5832 5833 5834 5834 5835 5835 5836
5775 5777 5778 5780 5782 5784 5786 5788 5789 5791 5792 5794 5796 5797 5799 5801 5802 5804 5805 5807 5808 5809 5811 5812 5813 5814 5816 5817 5819 5820 5821 5823 5824 5825 5826 5827 5828 5828 5829 5830 5831 5831 5832
5768 5769 5771 5773 5775 5777 5779 5781 5783 5784 5786 5788 5789 5791 5793 5795 5796 5798 5799 5801 5802 5804 5805 5806 5808 5809 5810 5811 5813 5814 5816 5817 5818 5819 5821 5822 5823 5824 5824 5825 5826 5827 5827
5760 5761 5763 5765 5767 5769 5771 5773 5775 5777 5779 5781 5782 5784 5786 5788 5790 5791 5793 5795 5796 5797 5799 5800 5801 5802 5804 5805 5806 5808 5809 5811 5812 5814 5815 5816 5817 5818 5819 5820 5820 5821 5822
5752 5753 5755 5757 5759 5761 5763 5765 5768 5770 5772 5774 5775 5777 5779 5781 5782 5784 5786 5787 5789 5791 5792 5793 5794 5796 5797 5798 5800 5801 5802 5804 5805 5807 5808 5809 5811 5812 5813 5814 5814 5815 5816
5743 5745 5747 5749 5751 5753 5755 5757 5759 5762 5764 5766 5768 5770 5771 5773 5775 5776 5778 5780 5781 5783 5785 5786 5787 5789 5790 5791 5792 5794 5795 5796 5798 5799 5801 5802 5804 5805 5806 5807 5808 5808 5809
5735 5737 5738 5740 5742 5744 5746 5748 5751 5753 5755 5758 5760 5761 5763 5765 5767 5769 5770 5772 5773 5775 5777 5778 5780 5781 5782 5784 5785 5786 5787 5789 5790 5792 5793 5795 5796 5797 5798 5799 5800 5801 5802
5727 5728 5730 5731 5733 5735 5737 5739 5742 5744 5746 5749 5751 5753 5755 5756 5758 5760 5762 5764 5765 5767 5768 5770 5771 5773 5774 5776 5777 5778 5780 5781 5783 5784 5785 5787 5788 5789 5790 5791 5792 5793 5794
5719 5720 5721 5723 5724 5726 5728 5730 5732 5734 5737 5739 5742 5744 5746 5747 5749 5751 5753 5754 5756 5758 5760 5761 5763 5764 5766 5767 5769 5770 5772 5773 5774 5776 5777 5778 5780 5781 5782 5783 5784 5785 5786
5710 5711 5712 5714 5716 5717 5718 5720 5723 5725 5727 5730 5732 5734 5736 5738 5740 5742 5744 5745 5747 5749 5751 5752 5754 5755 5757 5759 5760 5762 5763 5764 5765 5767 5768 5769 5771 5772 5773 5774 5775 5776 5777
5700 5701 5703 5704 5706 5708 5709 5711 5713 5715 5717 5719 5722 5724 5726 5728 5730 5732 5734 5736 5738 5739 5741 5743 5744 5746 5748 5749 5751 5752 5753 5755 5756 5757 5759 5760 5761 5762 5763 5764 5766 5767 5767
5690 5692 5693 5695 5696 5698 5700 5701 5703 5705 5707 5709 5711 5714 5716 5718 5720 5722 5724 5726 5728 5729 5731 5733 5734 5736 5738 5739 5741 5742 5744 5746 5746 5747 5748 5749 5751 5752 5753 5754 5755 5756 5757
5680 5682 5683 5685 5686 5688 5689 5691 5692 5694 5696 5699 5701 5703 5705 5708 5710 5712 5714 5715 5717 5719 5721 5722 5724 5726 5727 5728 5730 5732 5733 5735 5736 5737 5738 5739 5740 5741 5742 5743 5743 5744 5745
5670 5672 5673 5675 5676 5677 5679 5680 5682 5684 5686 5688 5691 5693 5695 5697 5699 5701 5703 5705 5706 5708 5710 5711 5713 5714 5716 5717 5719 5720 5722 5723 5725 5727 5728 5728 5729 5729 5730 5731 5731 5732 5733
5659 5661 5662 5664 5665 5667 5668 5670 5671 5673 5675 5678 5680 5682 5684 5686 5688 5690 5692 5694 5695 5697 5698 5700 5701 5703 5704 5706 5707 5708 5710 5711 5713 5714 5716 5717 5718 5718 5718 5718 5719 5719 5720
5648 5649 5651 5652 5654 5656 5657 5659 5660 5662 5664 5666 5668 5670 5672 5674 5676 5678 5680 5682 5683 5685 5686 5688 5689 5690 5692 5693 5695 5696 5697 5699 5700 5701 5703 5705 5705 5706 5706 5706 5706 5706 5706
Wind_Speed
14 14 14 14 13 13 13 13 13 12 12 11 11 11 10 10 9 9 9 9 8 8 8 7 7 7 6 6 6 5 4 4 4 4 4 4 4 3 3 3 3 3 3
14 14 15 14 14 14 13 13 13 13 13 12 12 12 12 12 11 10 10 10 10 9 9 8 8 8 7 7 7 6 6 5 5 5 4 5 5 4 4 4 4 4 4
16 16 15 15 15 15 14 14 14 14 13 13 13 13 13 13 13 12 12 11 11 10 10 10 10 9 9 9 8 7 7 7 6 6 5 6 6 6 5 5 5 5 5
17 17 17 16 15 15 15 15 15 14 14 14 14 14 14 14 14 14 14 13 13 12 12 12 11 11 11 10 10 9 9 9 9 8 7 7 7 7 6 6 7 7 6
19 19 19 18 17 16 16 16 16 15 15 15 15 14 14 15 15 16 15 15 14 14 14 13 13 12 12 12 12 11 11 11 10 9 9 9 8 8 8 7 8 8 7
21 20 20 19 19 18 18 17 17 17 17 17 16 16 16 16 16 17 17 16 16 16 15 15 14 14 14 14 13 13 12 12 12 11 11 10 10 9 9 9 9 9 9
22 21 21 21 21 20 20 19 18 18 18 19 18 18 18 17 17 18 18 17 17 17 17 16 16 16 15 15 15 14 14 14 14 13 13 12 12 11 11 11 10 10 10
23 23 22 22 22 22 22 21 21 20 20 20 20 20 20 19 18 18 18 19 18 18 18 18 18 18 18 17 17 16 16 16 16 15 15 14 14 13 13 12 12 12 12
25 24 24 23 24 24 23 23 23 22 22 22 21 21 21 22 21 20 20 20 20 20 20 20 20 19 19 19 19 18 17 17 17 16 16 16 15 15 15 14 14 14 13
27 27 26 26 25 26 26 25 25 24 24 24 23 23 23 23 23 23 22 21 21 21 21 22 22 22 21 21 20 20 20 20 19 18 18 18 17 17 17 16 16 16 16
29 29 28 28 28 27 27 27 27 26 26 26 25 25 25 25 24 24 24 24 23 23 23 23 23 23 23 23 22 22 22 22 22 21 20 20 20 19 19 18 18 18 18
31 30 30 30 29 29 29 29 28 28 28 28 27 27 27 27 26 26 26 26 25 25 25 25 25 25 25 25 25 24 24 24 23 23 23 23 22 22 21 21 20 20 20
32 33 32 31 31 31 31 30 30 30 30 30 30 30 29 29 28 28 27 27 27 26 26 26 27 26 26 27 26 26 26 26 25 25 25 24 24 24 24 24 23 23 22
32 33 33 33 33 33 32 32 32 31 31 31 32 32 32 31 30 29 29 29 29 29 28 28 28 28 28 28 28 28 28 28 28 27 27 27 27 26 26 26 26 25 25
33 33 34 34 33 34 34 34 34 33 33 33 32 33 33 33 33 32 32 31 31 31 30 30 30 30 30 30 30 29 30 30 30 30 30 30 30 29 28 28 28 28 28
34 34 34 35 35 35 35 36 35 35 35 35 34 34 34 34 35 34 34 33 33 33 33 32 32 32 32 32 32 32 32 31 31 32 32 32 32 31 31 30 30 30 30
34 34 35 34 35 36 37 36 37 37 37 36 36 36 35 35 35 36 35 35 35 34 34 34 34 34 33 34 34 34 33 33 33 33 33 33 33 33 33 32 32 32 32
35 35 35 36 36 36 37 38 38 38 39 38 38 38 37 37 37 37 37 37 36 36 36 36 36 35 35 34 34 34 35 35 35 35 35 34 34 34 34 34 34 34 34
36 36 36 36 36 37 38 39 39 39 39 40 39 39 39 39 38 38 39 39 38 38 38 37 38 37 37 37 36 36 35 36 36 36 36 37 36 36 36 36 35 35 35
37 37 38 38 37 37 38 39 40 40 40 41 40 41 40 40 40 40 41 41 40 39 39 39 39 39 38 38 38 38 38 37 37 38 38 39 39 38 38 38 38 37 37
38 38 39 39 39 39 38 39 41 41 41 41 42 42 42 41 41 41 42 42 41 41 41 41 41 40 40 41 40 40 40 39 39 39 39 39 39 39 40 40 40 40 39
40 40 40 40 40 40 40 40 40 42 42 42 42 43 43 43 43 42 42 42 42 42 42 43 43 43 43 43 43 43 42 41 41 41 41 40 41 41 41 42 42 42 42
41 41 41 41 41 41 42 42 42 42 43 43 43 44 44 45 44 44 43 43 44 44 44 44 44 44 44 44 45 45 44 43 42 42 42 42 42 42 43 43 44 44 44
42 42 42 42 43 43 42 43 43 43 43 43 44 45 45 46 45 45 45 45 45 45 45 46 46 46 46 45 45 46 46 45 45 44 44 44 43 44 44 44 45 46 46
43 43 43 43 44 43 43 43 43 44 44 45 45 46 46 46 46 47 47 46 46 46 46 47 48 47 47 47 46 46 47 47 47 47 46 46 46 46 47 47 48 48 48
44 44 44 44 44 44 44 45 45 45 45 46 46 47 48 48 48 48 48 48 48 48 49 49 49 50 50 49 49 49 49 49 49 50 49 49 49 48 48 49 49 50 51
Wind_Direction
244 246 246 245 242 240 237 236 237 237 239 239 239 236 235 235 239 242 243 245 245 246 247 249 252 256 256 255 258 267 272 271 271 275 271 264 259 262 274 281 278 271 265
244 243 244 245 243 240 238 237 239 238 239 240 240 237 236 236 239 240 241 243 244 245 247 248 251 253 255 256 257 259 263 266 270 274 271 264 259 262 274 283 282 278 274
245 244 243 244 244 243 241 240 241 240 241 241 241 240 238 237 238 239 241 242 244 245 246 247 249 252 253 255 256 258 261 264 265 269 265 260 261 262 268 274 276 277 277
248 247 246 246 245 244 243 243 243 242 242 241 241 244 243 241 240 240 243 244 245 246 247 246 248 250 251 253 254 256 259 262 262 263 262 259 261 264 267 268 271 276 280
249 249 248 247 246 245 244 245 245 244 244 244 245 246 246 243 241 242 245 245 247 248 247 246 247 249 250 251 252 254 257 260 258 258 258 258 260 261 264 270 273 275 277
250 250 249 247 245 245 245 246 246 244 245 247 248 249 249 247 243 244 245 246 248 249 248 247 248 248 250 252 253 252 254 254 254 256 257 257 257 259 260 265 270 273 273
250 250 249 248 246 246 245 246 246 245 246 246 248 249 249 249 247 246 246 247 249 249 248 249 249 250 250 252 253 254 254 253 253 253 255 255 257 258 258 261 266 269 272
249 250 250 249 247 247 247 247 247 247 246 246 247 248 249 249 249 250 251 250 250 250 250 251 251 252 251 251 253 254 255 254 254 253 252 253 255 257 259 259 263 267 269
249 250 250 250 249 248 248 248 247 247 247 246 246 247 250 251 250 251 253 253 252 251 251 252 252 252 252 252 253 254 255 255 254 253 252 253 254 256 259 261 263 266 268
250 250 250 251 250 249 249 248 248 248 248 247 246 247 249 251 252 252 252 253 254 253 252 252 252 252 253 253 253 254 254 255 255 253 254 255 258 259 260 262 264 266 267
250 251 251 251 251 250 249 248 248 248 248 248 248 248 249 251 253 254 253 253 254 255 254 253 253 252 252 252 253 253 254 255 255 253 255 257 259 260 261 262 264 266 266
251 251 251 251 251 250 249 248 248 248 249 249 249 250 251 252 253 254 254 253 254 255 255 254 254 253 253 253 253 253 254 255 256 255 255 257 259 260 262 262 264 266 266
250 250 250 250 251 250 250 249 249 249 249 249 249 250 251 252 252 253 254 254 253 254 254 254 253 255 255 254 254 254 255 255 256 256 257 258 259 260 262 264 265 265 265
253 251 250 251 251 251 250 250 250 250 250 251 251 250 250 251 253 254 254 254 254 254 254 255 256 256 257 255 255 255 256 256 255 255 256 258 259 260 262 263 264 265 265
254 254 253 251 252 251 250 250 249 249 250 251 252 252 252 252 252 253 254 255 255 255 254 254 256 257 257 256 256 256 257 256 255 255 256 258 259 260 261 263 264 264 265
254 254 253 253 252 251 250 250 249 250 250 251 252 253 253 253 254 253 253 254 256 256 255 255 255 256 256 258 257 257 257 257 256 257 258 259 260 261 261 262 262 263 264
254 253 252 253 252 251 251 251 249 249 250 252 253 255 255 255 255 254 254 255 256 256 256 255 255 255 256 258 258 257 257 257 258 258 258 259 260 261 260 262 262 262 263
254 253 252 253 253 251 251 250 250 250 250 252 253 254 256 256 256 256 255 256 257 256 256 255 255 255 256 257 257 257 256 258 260 259 259 259 261 263 262 262 263 264 263
255 254 254 253 254 253 251 251 250 251 251 252 252 254 255 257 257 257 257 257 257 257 257 256 255 255 256 258 258 258 258 259 258 259 260 261 262 263 263 263 263 264 264
255 255 255 254 253 253 253 252 251 251 251 252 251 253 255 256 258 258 258 258 258 258 258 257 257 256 256 257 258 258 259 259 258 259 261 263 263 263 263 263 264 265 266
254 254 254 254 253 253 254 254 253 252 251 251 251 253 255 256 257 257 258 258 258 258 257 257 258 257 258 257 258 259 260 260 259 260 261 262 263 264 263 264 265 266 266
255 255 254 254 254 254 253 254 254 253 252 252 252 254 255 255 255 257 257 257 258 257 258 258 258 258 258 258 258 258 258 259 259 260 261 262 263 264 264 265 266 265 266
256 255 255 255 254 254 254 253 253 254 253 252 252 253 254 255 255 256 257 257 258 258 258 259 259 259 260 259 259 260 260 259 259 260 261 262 263 264 265 266 266 266 266
255 256 256 256 256 255 254 253 253 253 253 253 254 254 254 255 255 256 257 258 258 258 258 259 259 261 261 261 261 260 261 261 261 260 262 262 263 265 266 266 267 268 267
256 256 257 256 256 255 254 254 254 253 253 253 254 254 255 255 255 256 257 258 258 258 258 258 259 259 259 260 260 260 260 261 261 262 262 263 264 265 265 266 267 267 267
257 257 257 257 256 255 255 255 255 254 253 253 254 255 255 255 256 256 257 257 257 258 258 259 258 258 259 260 260 261 261 262 262 263 263 263 264 264 265 266 266 266 267